Regional Weather Roundup
Issued by NWS Charleston, SC

Current Version | Previous Version | Graphics & Text | Print | Product List | Glossary On
Versions: 1 2 3 4 5 6 7 8 9 10 11 12 13 14 15 16 17 18 19 20 21 22 23 24 25 26 27 28 29 30 31 32 33 34 35 36 37 38 39 40 41 42 43 44 45 46 47 48 49 50
443
ASUS42 KCHS 271712
RWRCHS

REGIONAL WEATHER ROUNDUP
NATIONAL WEATHER SERVICE CHARLESTON SC
100 PM EDT THU JUL 27 2017

NOTE: "FAIR" INDICATES FEW OR NO CLOUDS BELOW 12,000 FEET WITH NO
SIGNIFICANT WEATHER AND/OR OBSTRUCTIONS TO VISIBILITY.

NOT ALL STATIONS ARE QUALITY CONTROLLED. USE DATA WITH CAUTION...
ESPECIALLY DEWPOINT OBSERVATIONS.

SCZ027-030-031-034>040-042>050-271800-
...SOUTHEAST SOUTH CAROLINA...

CITY           SKY/WX    TMP DP  RH WIND       PRES   REMARKS
N CHARLESTON   MOSUNNY   86  69  56 CALM      30.02F HX  90
WATERFRONT PRK   N/A     82  74  77 VRB2      30.03F
JOHNS ISLAND   FAIR      86  73  66 SE6       30.03F HX  93
PINOPOLIS        N/A     84  75  74 VRB3      29.97F HX  92
MONCKS CORNER  FAIR      86  72  62 CALM      30.02F HX  92
SUMMERVILLE    FAIR      86  72  62 CALM      30.03F HX  92
BEAUFORT MCAS  CLOUDY    83  75  77 CALM      30.03F HX  90
BEAUFORT ARPT  PTSUNNY   81  73  78 SE6       30.03F HAZE
HILTON HEAD IS PTSUNNY   82  75  78 E6        30.04F
WALTERBORO     NOT AVBL
ALLENDALE      NOT AVBL

...SOUTHERN MIDLANDS AND PEE DEE...

CITY           SKY/WX    TMP DP  RH WIND       PRES   REMARKS
GEORGETOWN     FAIR      86  73  66 CALM      30.04F HX  93
KINGSTREE      PTSUNNY   86  72  62 S6        30.02F HX  92
ORANGEBURG     SUNNY     88  71  57 CALM      30.04F HX  94
BARNWELL       FAIR      88  73  62 CALM      30.04F HX  96
AIKEN          FAIR      84  72  65 CALM      30.09F
MANNING        FAIR      86  75  70 CALM      30.02F HX  95
COLUMBIA       MOSUNNY   86  72  62 E5        30.04F HX  92
SUMTER         MOSUNNY   88  72  57 S7        30.01F HX  95
FLORENCE       MOSUNNY   87  73  62 VRB6      30.03F HX  94
MYRTLE BEACH   MOSUNNY   86  75  70 SE12      30.04F HX  95
N MYRTLE BEACH SUNNY     85  75  72 SE12      30.03F HX  93

$$

GAZ063-065-086>088-099>101-113>116-118-119-134>141-150-271800-
...SOUTHEAST GEORGIA...

CITY           SKY/WX    TMP DP  RH WIND       PRES   REMARKS
SAVANNAH ARPT  LGT RAIN  78  75  90 NE3       30.03F
HUNTER AAF     HVY RAIN  79  76  91 N5        30.00F
FORT STEWART   PTSUNNY   81  73  78 NE6       30.00F
STATESBORO     CLOUDY    84  69  61 E7        30.03F
SYLVANIA       PTSUNNY   83  77  81 SE6       30.04F HX  91
CLAXTON        PTSUNNY   86  75  70 NE7       30.02F HX  94

...CSRA...CENTRAL AND FAR SOUTHEAST GEORGIA...

CITY           SKY/WX    TMP DP  RH WIND       PRES   REMARKS
THOMSON        PTSUNNY   84  72  65 SE5       30.11F HX  90
AUGUSTA-BUSH   PTSUNNY   88  75  65 VRB3      30.04F HX  97
AUGUSTA-DANIEL MOSUNNY   88  70  55 VRB3      30.06F HX  93
SWAINSBORO     FAIR      86  72  62 N5        30.04F HX  92
VIDALIA        PTSUNNY   88  73  62 E7        30.03F HX  96
EASTMAN        FAIR      88  63  43 NE5       30.06F
HAZLEHURST     FAIR      88  76  67 NE8       30.01F HX  98
ALMA           CLOUDY    86  76  71 VRB3      30.01F HX  96
WAYCROSS       CLOUDY    82  82 100 NE3       30.02F HX  97
JESUP          NOT AVBL
BAXLEY         PTSUNNY   86  81  84 NE5       30.01F HX 102
BRUNSWICK      LGT RAIN  77  77 100 CALM      30.02F
SAINT SIMONS   CLOUDY    80  77  90 CALM      30.01F

$$

SCZ027-028-034-036>038-045-046-048>050-GAZ119-141-271800-
...LAKE AND SUPPLEMENTAL COASTAL OBSERVATIONS...

STATION/POSITION TIME  TEMP    WIND        PRES    WAVE   SWELL
                       AIR SEA DIR/SP/G            HT/PER HT/PER/DIR
                 (UTC) (F)     (DEG/KT/KT) (MB)    (FT/S) (FT/S/D)
WINYAH BAY       NOT AVBL
LAKE MURRAY      1620   83     200/  4/  6 1016.9
ACE BASIN NERRS  NOT AVBL
FORT PULASKI     1648   80 84  110/  7/  9 1017.1F
SAPELO ISLAND    1600   75        CALM     1017.0

$$

ANZ835-935-AMZ111-154-330-350-352-354-370-450-454-472-271800-
...C-MAN AND BUOY OBSERVATIONS...

STATION/POSITION TIME  TEMP    WIND        PRES    WAVE   SWELL
                       AIR SEA DIR/SP/G            HT/PER HT/PER/DIR
                 (UTC) (F)     (DEG/KT/KT) (MB)    (FT/S) (FT/S/D)
BUOY 41004       1650   79 83  290/  8/ 10 1017.0F   2/ 6   2/ 60/ 6
BUOY 41008       1650   77 81  290/ 10/ 12 1016.0F   3/ 5   2/120/ 5
FOLLY BEACH CMAN 1600   83      CALM  /  2 1018.1F
CAPERS NEARSHORE 1608   79 84  250/  8/ 14 1017.3F
FRIPP NEARSHORE  1608   80 84  120/  8/ 10 1017.0R


STATION/POSITION TIME  TEMP    WIND        PRES    WAVE   SWELL
                       AIR SEA DIR/SP/G            HT/PER HT/PER/DIR
                 (UTC) (F)     (DEG/KT/KT) (MB)    (FT/S) (FT/S/D)
5E ST. MARYS GA  1630      79                N/A     2/ 5
FRYING PAN BUOY  1650   79 82  270/  4/  6 1017.4F   2/ 6   2/100/ 6
BUOY 41025       1650   81 85  230/  4/  6 1017.7F   3/ 8   3/ 50/ 8
CAPE LOOKOUT NC  1600   81     150/  7/  8 1017.7F
BUOY 41002       1550   81 83  300/ 10/ 12 1017.5    3/ 7   3/ 20/ 7
BUOY 41010       1650   85 85  190/  6/  6 1017.5F   3/ 7   2/110/ 7
ST AUGUSTINE FL  1700   79 76  130/  9/  9 1016.3F


$$




USA.gov is the U.S. government's official web portal to all federal, state and local government web resources and services.